Location: Marsån
(66.4167°N, 22.2833°E)
Time: 11:33:14
(UTC+00:00)

ASTEX 1 - Pass Details

Date: 24 February 2024
Orbit: 718 x 738 km, 92.7° (Epoch: 15 April)

Event Time Altitude Azimuth Distance (km) Brightness Sun altitude
Rises 17:38:25 0° 5° (N) 3,147 6.7 -14.1°
Reaches altitude 10° 17:40:49 10° 12° (NNE) 2,224 5.9 -14.3°
Maximum altitude 17:45:31 44° 85° (E) 1,005 3.7 -14.8°
Drops below altitude 10° 17:50:12 10° 157° (SSE) 2,219 5.6 -15.2°
Sets 17:52:35 0° 164° (SSE) 3,139 6.4 -15.5°
